Regional Weather Roundup
Issued by NWS

Home | Current Version | Previous Version | Text Only | Print | Product List | Glossary Off
Versions: 1 2 3 4 5 6 7 8 9 10 11 12 13 14 15 16 17 18 19 20 21 22 23 24 25 26 27 28 29 30 31 32 33 34 35 36 37 38 39 40 41 42 43 44 45 46 47 48 49 50

736
ASUS43 KFSD 051610
RWRSD

WEATHER ROUNDUP FOR SOUTH DAKOTA
NATIONAL WEATHER SERVICE SIOUX FALLS SD
1100 AM CDT THU MAY 05 2016

NOTE: "FAIR" INDICATES FEW OR NO CLOUDS BELOW 12,000 FEET WITH NO
SIGNIFICANT WEATHER AND/OR OBSTRUCTIONS TO VISIBILITY.


SDZ001>005-009-010-012>017-051700-
NORTHWEST AND NORTH CENTRAL SOUTH DAKOTA

CITY           SKY/WX    TMP DP  RH WIND       PRES   REMARKS
BUFFALO          N/A     71  48  43 VRB3      29.87F
FAITH            N/A     68  46  45 S10       29.92F
MOBRIDGE       SUNNY     71  49  45 SE15      29.91F
$$

SDZ012>016-024>037-041>051-057-063-072>074-051700-
SOUTHWEST AND SOUTH CENTRAL SOUTH DAKOTA

CITY           SKY/WX    TMP DP  RH WIND       PRES   REMARKS
RAPID CTY ARPT SUNNY     69  51  52 SE6       29.95F
PIERRE         SUNNY     75  48  38 S14       29.94F
CUSTER         SUNNY     74  30  19 MISG      30.07F
ELLSWORTH AFB  SUNNY     72  49  44 S6        29.94F
PHILIP         SUNNY     72  50  45 S7        29.93F
PINE RIDGE     SUNNY     71  45  39 S12       29.99F
WINNER         FAIR      75  47  36 S14       30.00F
$$

SDZ004>011-016>023-039-040-051700-
NORTHEAST SOUTH DAKOTA

CITY           SKY/WX    TMP DP  RH WIND       PRES   REMARKS
ABERDEEN       SUNNY     74  44  34 SW12      29.96F
WATERTOWN      SUNNY     72  40  31 SW12      30.00F
BROOKINGS      SUNNY     70  42  36 SW8       30.02F
SISSETON         N/A     76  41  28 W18G30    29.92F
$$

SDZ017-020-022-023-036>040-048>070-051700-
SOUTHEAST SOUTH DAKOTA

CITY           SKY/WX    TMP DP  RH WIND       PRES   REMARKS
SIOUX FALLS    MOSUNNY   66  43  43 SW8       30.05S
HURON          SUNNY     73  47  39 S9        29.99F
CHAMBERLAIN    SUNNY     74  52  45 S8        30.00F
MITCHELL       SUNNY     73  43  33 SW10      30.02F
YANKTON        SUNNY     66  46  48 SW7       30.04F
$$

ABBREVIATIONS USED IN REMARKS
   TC - TEMPERATURE IN CELSIUS
  WCI - WIND CHILL INDEX
   HX - HEAT INDEX
  VSB - VISIBILITY





USA.gov is the U.S. government's official web portal to all federal, state and local government web resources and services.